Orbital Elements at Epoch 2459200.5 (2020-Dec-17.0) TDB
Reference: JPL 19 (heliocentric ecliptic J2000)
Element | Value | Uncertainty (1-sigma) | Units |
e | .03334487027041349 | 5.1182e-08 | |
a | 3.191132494407968 | 2.3937e-08 | au |
q | 3.084724595366234 | 1.6903e-07 | au |
i | 15.79813793844848 | 5.7949e-06 | deg |
node | 182.3977203367335 | 1.3936e-05 | deg |
peri | 20.78493468149165 | 6.084e-05 | deg |
M | 25.24263795101518 | 5.8675e-05 | deg |
tp | 2459054.501659665104 (2020-Jul-24.00165967) | 0.00033947 | TDB |
period | 2082.167585755382 5.70 | 2.3428e-05 6.414e-08 | d yr |
n | .1728967459021301 | 1.9454e-09 | deg/d |
Q | 3.297540393449703 | 2.4735e-08 | au |
|
| | Orbit Determination Parameters
Additional Information
|